FLOCK 3P-72 (42051 NORAD) Tracking and Keplerian Element Data

This shows tracking and keplerian element data for the satellite.

Feedback or suggestion? Click here.




ElementValue
Catalog42051
NameFLOCK 3P-72
Epoch Orbit17475
Epoch Day114.72768088
Epoch Year2020
RAAN184.142
Inclination97.3719
Eccentricity0.0008959
Argument of Perigee124.7971
Mean Anonmoly235.4113
Mean Motion15.27363287
Decay Rate2.82E-05
L11 42051U 17008DH 20114.72768088 .00002820 00000-0 10791-3 0 9995
L22 42051 97.3719 184.1420 0008959 124.7971 235.4113 15.27363287174759



Live tracking and technical data element details for FLOCK 3P-72 (NORAD 42051). FLOCK 3P-72 can be tracked NOW for your location showing map with azimuth and elevation plus other details from your city location.







IsCatalogInMostPopularTable: catalog: 42051, numindb: 714
Update: records affected: 1



GetName: 42051 FLOCK 3P-72

Hit Count: updated at: Fri, 14 Jun 2024 18:26:43 GMT